Weather History for White Plains, NY

Change the Weather History Date:

Monday, April 8, 2013

  Actual Average Record
Temperature  
Mean Temperature 56 °F -  
Max Temperature 72 °F 53 °F 86 °F (1991)
Min Temperature 41 °F 36 °F 22 °F (1982)
Degree Days  
Heating Degree Days 10    
Growing Degree Days 6 (Base 50)    
Moisture  
Dew Point 39 °F    
Average Humidity 61    
Maximum Humidity 93    
Minimum Humidity 29    
Precipitation  
Precipitation 0.00 in - - ()
Sea Level Pressure  
Sea Level Pressure 30.02 in    
Wind  
Wind Speed 5 mph (SE)    
Max Wind Speed 14 mph    
Max Gust Speed -    
Visibility 9 miles    
Events      
Averages and records for this station are not official NWS values.
T = Trace of Precipitation, MM = Missing Value Source: NWS Daily Summary

Daily Weather History Graph

Daily Weather History Graph

Search for Another Location

Airport:

Trip Planner

Search our weather history database for the weather conditions in past years. The results will help you decide how hot, cold, wet, or windy it might be!

Date:

Astronomy

Apr. 08, 2013 Rise Set
Actual Time 6:26 AM EDT 7:27 PM EDT
Civil Twilight 5:58 AM EDT 7:55 PM EDT
Nautical Twilight 5:24 AM EDT 8:29 PM EDT
Astronomical Twilight 4:49 AM EDT 9:04 PM EDT
Moon 5:15 AM EDT (4/8) 5:58 PM EDT (4/8)
Length of Visible Light 13h 57m
Length of Day
13h 01m
Waning Crescent, 3% of the Moon is Illuminated
Apr 8
Waning Crescent
Apr 10
New
Apr 18
First Quarter
Apr 25
Full
May 2
Last Quarter

Hourly Weather History & Observations

Time (EDT) Temp. Windchill Dew Point Humidity Pressure Visibility Wind Dir Wind Speed Gust Speed Precip Events Conditions
12:56 AM 44.1 °F 42.5 °F 39.9 °F 85% 30.00 in 8.0 mi South 3.5 mph - N/A   Clear
1:56 AM 45.0 °F 43.5 °F 41.0 °F 86% 29.99 in 8.0 mi SSE 3.5 mph - N/A   Mostly Cloudy
2:56 AM 43.0 °F - 39.9 °F 89% 29.99 in 7.0 mi Calm Calm - N/A   Scattered Clouds
3:56 AM 43.0 °F - 39.0 °F 86% 29.99 in 7.0 mi Calm Calm - N/A   Scattered Clouds
4:56 AM 41.0 °F - 39.0 °F 93% 29.98 in 5.0 mi Calm Calm - N/A   Clear
5:56 AM 41.0 °F 38.0 °F 37.9 °F 89% 30.00 in 7.0 mi WNW 4.6 mph - N/A   Clear
6:56 AM 41.0 °F 38.0 °F 37.9 °F 89% 30.03 in 8.0 mi WNW 4.6 mph - N/A   Clear
7:56 AM 46.0 °F 44.8 °F 42.1 °F 86% 30.05 in 7.0 mi NW 3.5 mph - N/A   Clear
8:56 AM 51.1 °F - 42.1 °F 71% 30.06 in 10.0 mi NNW 6.9 mph - N/A   Clear
9:56 AM 55.9 °F - 39.9 °F 55% 30.06 in 10.0 mi Variable 4.6 mph - N/A   Clear
10:56 AM 60.1 °F - 39.0 °F 46% 30.07 in 10.0 mi NNW 8.1 mph - N/A   Clear
11:56 AM 62.1 °F - 37.9 °F 41% 30.07 in 10.0 mi WNW 11.5 mph - N/A   Clear
12:56 PM 64.0 °F - 37.0 °F 37% 30.06 in 10.0 mi Variable 6.9 mph - N/A   Clear
1:56 PM 66.9 °F - 36.0 °F 32% 30.04 in 10.0 mi NNW 5.8 mph - N/A   Clear
2:56 PM 70.0 °F - 36.0 °F 29% 30.02 in 10.0 mi NNW 6.9 mph - N/A   Clear
3:56 PM 69.1 °F - 37.9 °F 32% 30.01 in 10.0 mi ESE 6.9 mph - N/A   Clear
4:56 PM 69.1 °F - 37.0 °F 31% 30.00 in 10.0 mi SE 8.1 mph - N/A   Clear
5:56 PM 66.0 °F - 39.9 °F 38% 30.01 in 10.0 mi SE 13.8 mph - N/A   Clear
6:56 PM 62.1 °F - 39.0 °F 43% 30.02 in 9.0 mi South 11.5 mph - N/A   Clear
7:56 PM 57.0 °F - 39.9 °F 53% 30.03 in 10.0 mi SSE 5.8 mph - N/A   Clear
8:56 PM 55.9 °F - 39.9 °F 55% 30.03 in 10.0 mi SE 5.8 mph - N/A   Clear
9:56 PM 54.0 °F - 39.9 °F 59% 30.03 in 10.0 mi SE 8.1 mph - N/A   Clear
10:56 PM 54.0 °F - 41.0 °F 62% 30.02 in 10.0 mi East 4.6 mph - N/A   Overcast
11:56 PM 53.1 °F - 42.1 °F 66% 30.01 in 10.0 mi ESE 3.5 mph - N/A   Clear